Location: Newark
(39.6867°N, 100.6772°W)
Time: 05:19:28
(UTC+00:00)

Vanguard 1 Rocket - Pass Details

Date: 21 October 2019
Orbit: 651 x 4225 km, 34.3° (Epoch: 10 November)

Event Time Altitude Azimuth Distance (km) Brightness Sun altitude
Rises 16:19:22 0° 231° (SW) 4,878 11.2 31.5°
Reaches altitude 10° 16:22:02 10° 226° (SW) 4,234 11.0 31.8°
Maximum altitude 16:34:10 57° 152° (SSE) 3,219 11.7 33.1°
Drops below altitude 10° 16:56:11 10° 82° (E) 7,227 12.3 35.3°
Sets 17:02:31 0° 79° (E) 8,434 12.5 35.8°
